Location: Newark
(45.8667°N, 9.7333°E)
Time: 18:02:31
(UTC+00:00)

A-11 Canister half - Pass Details

Date: 22 January 2020
Orbit: 1517 x 1683 km, 47.2° (Epoch: 22 February)

Event Time Altitude Azimuth Distance (km) Brightness Sun altitude
Rises 06:04:45 0° 292° (WNW) 4,665 - -8.7°
Exits shadow 06:07:42 - 287° (WNW) 3,748 10.3 -8.2°
Reaches altitude 10° 06:07:55 10° 287° (WNW) 3,684 10.3 -8.2°
Maximum altitude 06:16:34 46° 218° (SW) 1,966 9.5 -6.8°
Drops below altitude 10° 06:25:22 10° 149° (SSE) 3,746 12.0 -5.3°
Sets 06:28:38 0° 143° (SE) 4,750 12.8 -4.8°
